This is the latest recevied weather packets stored in our database for station/object SP1BMW-13. If no packets are shown the sender has not sent any weather packets the latest 1 day(s).
| Time | Temp. | Humidity | Pressure | Rain* | Wind** | Luminosity | Snow |
|---|---|---|---|---|---|---|---|
| 1778033989 | 10° C | 94% | 1006.4 hPa | 0 mm | 0.89 m/s, 41° | 0 W/m² | - |
| 1778033929 | 10° C | 94% | 1006.7 hPa | 0 mm | 0.45 m/s, 33° | 0 W/m² | - |
| 1778033869 | 10° C | 94% | 1006.3 hPa | 0 mm | 0.89 m/s, 347° | 0 W/m² | - |
| 1778033809 | 10° C | 94% | 1006.4 hPa | 0 mm | 0.45 m/s, 336° | 0 W/m² | - |
| 1778033749 | 10° C | 94% | 1006.4 hPa | 0 mm | 0 m/s | 0 W/m² | - |
| 1778033689 | 10° C | 94% | 1006.4 hPa | 0 mm | 0 m/s | 0 W/m² | - |
| 1778033629 | 10° C | 94% | 1006.5 hPa | 0 mm | 1.79 m/s, 334° | 0 W/m² | - |
| 1778033569 | 10° C | 94% | 1006.7 hPa | 0 mm | 0.89 m/s, 358° | 0 W/m² | - |
| 1778033449 | 10° C | 94% | 1006.4 hPa | 0 mm | 0 m/s | 0 W/m² | - |
| 1778033389 | 10° C | 94% | 1006.3 hPa | 0 mm | 0.45 m/s, 327° | 0 W/m² | - |
| 1778033329 | 10° C | 94% | 1006.5 hPa | 0 mm | 0.45 m/s, 350° | 0 W/m² | - |
| 1778033269 | 10° C | 94% | 1006.4 hPa | 0 mm | 0.45 m/s, 35° | 0 W/m² | - |
| 1778033209 | 10° C | 94% | 1006.5 hPa | 0 mm | 0.45 m/s, 342° | 0 W/m² | - |
| 1778033149 | 10° C | 94% | 1006.5 hPa | 0 mm | 0.45 m/s, 337° | 0 W/m² | - |
| 1778033089 | 10° C | 94% | 1006.6 hPa | 0 mm | 0.45 m/s, 37° | 0 W/m² | - |
| 1778033030 | 10° C | 94% | 1006.5 hPa | 0 mm | 1.34 m/s, 22° | 0 W/m² | - |
| 1778032972 | 10° C | 94% | 1006.5 hPa | 0 mm | 0.89 m/s, 314° | 0 W/m² | - |
| 1778032729 | 10° C | 94% | 1006.7 hPa | 0 mm | 0.45 m/s, 48° | 0 W/m² | - |
| 1778032669 | 10° C | 94% | 1006.5 hPa | 0 mm | 0.45 m/s, 46° | 0 W/m² | - |
| 1778032612 | 10° C | 94% | 1006.6 hPa | 0 mm | 0.45 m/s, 54° | 0 W/m² | - |
| 1778032549 | 10° C | 94% | 1006.5 hPa | 0 mm | 0.89 m/s, 50° | 0 W/m² | - |
| 1778032489 | 10° C | 94% | 1006.6 hPa | 0 mm | 0 m/s | 0 W/m² | - |
| 1778032429 | 10° C | 94% | 1006.7 hPa | 0 mm | 0.45 m/s, 43° | 0 W/m² | - |
| 1778032369 | 10° C | 94% | 1006.6 hPa | 0 mm | 0.89 m/s, 4° | 0 W/m² | - |
| 1778032309 | 10° C | 94% | 1006.5 hPa | 0 mm | 1.79 m/s, 47° | 0 W/m² | - |
* Rain latest hour (hover to see other rain measurements)
** Current wind speed in m/s (hover to see current wind gust speed)